STARLINK-32741, 62526

Orbit data source: Space-Track

STARLINK-32741, 62526 is a payload satellite owned by SpaceX/Seattle (US) in LEO that was launched on Wed, 08 Jan 2025 UTC via an FALCON 9 launch vehicle from the Air Force Eastern Test Range (AFETR). Payloads include a variety of satellites, spacecraft, and rockets equipped with specific instruments for various scientific and technological missions. These include communications satellites like Starlink; space stations such as the ISS; scientific satellites like the Hubble; Earth observation satellites from companies like Planet Labs, Umbra, and HawkEye 360; GPS; miniature CubeSats for education and research; and military/defense satellites.

Loading next visibility...
STARLINK-32741 details
Identifier
62526, 2025-004R
Orbit
LEO
Last TLE update8 hours ago
Origin
Flag of USSpaceX/Seattle (US)
ManufacturerSpaceX/Seattle
MissionOperational spacecraft
Bus & MotorSTARLINK V2M, Unknown motor
Mass730 kg wet, ~700 kg dry
Launch date (UTC)
2025-01-08 (1 month ago)
Launch vehicle
FALCON 9
Launch site
Air Force Eastern Test Range (AFETR)
Object type
Payload
Rocket body
Debris
Shape & HBRUnknown
Radar Cross SectionLarge (>1 m²)

Expand to show TLE details & history

TLE from 8 hours ago
0 STARLINK-32741
1 62526U 25004R   25035.83335648  .00003010  00000-0  57113-4 0  9992
2 62526  42.9990 311.8909 0001451 261.5437  54.9982 15.50577116  5523
Epoch: 2025-02-04T20:00Z
Definitive object data (Epoch: 2025-02-04T20:00:01.999Z)
Latitude-28.14232°
Longitude-158.13102°
Altitude421.773 km
Speed7.659 km/s
True Right ascension18h 28m 26s
True Declination-27° 59' 33"
Sunlit
Object was in daylight at TLE epoch
Visualization TLE readout
Latitude-7.56016°
Longitude-133.40558°
Altitude416.015 km
Speed7.663 km/s
Apparent Right ascension19h 11m 28s
Apparent Declination-23° 57' 50"
Sunlit
Object is in daylight
Visualization observer readout
Local Sidereal Time05:53:56
Azimuth308.542° NW
Elevation-67.186°
Doppler factor1
Orbital elements
Apogee altitude417.991 km
Perigee altitude416.019 km
Semi-major axis6,795.142 km
Eccentricity0.0001451
Inclination42.999°
RAAN311.8909°
Arg. of periapsis261.5437°
True anomaly55.01182°
Mean anomaly54.9982°
Eccentric anomaly55.00501°
Mean motion3.87477 °/min
BSTAR0.000057113
Orbital period92.91 mins
Loading maneuver chart data...
Loading historical data...
Loading historical data...
Loading historical data...
Loading historical data...
Loading historical data...
Loading historical data...
Loading historical data...

STARLINK-32741 Visibility forecast

Observer location: undefined°, undefined

Span
Click to sort rows by Start time (UTC) header in descending order
Start Az.
Max El. time (UTC)
Max El. Az.
Max El.
End time (UTC)
End Az.
4 mins2025-02-05 21:08:11.183Z188.981° SSW2025-02-05 21:10:11.183Z132.401° SE22.723°2025-02-05 21:12:11.183Z93.255° ESE
5 mins2025-02-05 22:45:11.183Z261.724° W2025-02-05 22:47:11.183Z33.804° NE42.96°2025-02-05 22:50:11.183Z70.602° E
4 mins2025-02-06 00:23:11.183Z303.542° NW2025-02-06 00:24:11.183Z339.225° N35.337°2025-02-06 00:27:11.183Z74.675° E
5 mins2025-02-06 02:00:11.183Z287.308° WNW2025-02-06 02:02:11.183Z145.848° SSE44.877°2025-02-06 02:05:11.183Z110.626° ESE
|